Weather in Falmouth

Jamaica     18°29′12″N   77°39′01″W
temp.,
°C
wind,
m/s
gust,
m/s
humid.,
%
clouds,
%
prec.,
mm/h
press.,
hPa
HPBL,
m
28 november, sun
sun2801:00+24e35740 0.0 1014668
04:00+23e36730 0.0 1013714
07:00+23e357510 0.0 1015677
10:00+27ene566970 0.1 10161102
13:00+27ene567134 0.4 1013887
16:00+26ne567339 0.2 1012906
19:00+25ene467850 0.3 1014677
22:00+24e357929 0.1 1015575
29 november, mon
mon2901:00+24ene238231 0.2 1014499
04:00+24ne247466 0.0 1013640
07:00+25ne236917 0.0 1015636
10:00+26nne326394 0.0 10161028
13:00+27nne326458 0.0 1014945
16:00+26n3469100 0.0 1013850
19:00+24ne347367 0.0 1015593
22:00+24ene237487 0.0 1015539
30 november, tue
tue3001:00+23ene247750 0.0 1014605
04:00+23e2478100 0.0 1014671
07:00+23e3679100 0.0 1015725
10:00+26ene667154 0.1 10171100
13:00+27ene666780 0.3 10141202
16:00+26ene677326 0.1 1013927
19:00+24e478031 0.1 1015631
22:00+24e478133 0.0 1016678
1 december, wed
wed101:00+24e488082 0.0 1015668
04:00+24e5882100 0.1 1014724
07:00+25e6108168 0.1 1016822
10:00+28e7866100 0.1 10171200
13:00+27ene786739 0.1 10151158
16:00+27ene687323 0.0 1014980
19:00+26e6979100 0.0 1016812
22:00+26e697786 0.0 1017903
2 december, thu
thu201:00+25e59828 0.0 1015707
04:00+25e6108099 0.0 1014837
07:00+26ene697614 0.0 1016847
10:00+28ene676749 0.0 10171123
13:00+27ne556983 0.1 1015936
16:00+27ene567474 0.1 1014791
19:00+25e3481100 0.1 1015441
22:00+24ene2383100 0.0 1016437